Location: Kott?ru
(16.6209°N, 80.6208°E)
Time: 14:22:37
(UTC+00:00)

OAO 1 - Pass Details

Date: 18 September 2020
Orbit: 774 x 784 km, 35.0° (Epoch: 30 October)

Event Time Altitude Azimuth Distance (km) Brightness Sun altitude
Exits shadow 23:07:41 36° 283° (WNW) 1,210 5.0 -19.6°
Maximum altitude 23:09:50 64° 215° (SW) 852 4.5 -19.1°
Drops below altitude 10° 23:15:16 10° 134° (SE) 2,319 7.5 -17.8°
Sets 23:17:46 0° 131° (SE) 3,247 8.4 -17.2°
